星链-1600 (STARLINK-1600 )

导读

STARLINK-1600是美国太空探索技术公司(SpaceX)星链互联网星座的组网卫星,于北京时间2020年8月18日发射入轨,属于星链计划早期批次的组网卫星。星链旨在构建全球卫星互联网,该卫星承担低轨宽带通信覆盖任务,助力实现全球偏远地区网络接入,推动卫星互联网商业化部署。

基本信息
目录编号:
46161
目录名称:
STARLINK-1600
国际标识:
2020-057AW
轨道中心:
EARTH
卫星名称:
星链-1600
卫星全名:
星链-1600 (STARLINK-1600 )
卫星状态:
已陨落 最后检测时间 2025-06-14
发射日期:
2020-08-18 UTC
国别 :
美国 (US)
星等 :
--
该卫星已列入 空间交会检测服务 Space Conjunction Data Service (SCDS) ,当前飞行风险评估等级: 无高风险
轨道信息
数据来源 国际轨道数据
星历时间: 2025-06-15T01:25:05+0800
轨道信息已过期453天
半长轴: 6524.521km
偏心率: 0.0009938
轨道倾角: 53.007°
近地点辐角 255.783°
升交点赤经 351.813°
平近点角 168.534°
近地点: 139.901km
远地点: 152.871km
周期: 87.414分钟
每日圈数: 16.473273
详细信息
固有亮度:
5
最大亮度:
2.5
卫星平台:
Starlink V1.0
覆盖范围:
全球
运营商:
太空探索技术公司
运营商所在国:
美国
制造商(研发单位):
太空探索技术公司
制造商所在国:
美国
使用方式:
暂无
卫星简介
星链(Starlink)计划是由太空探索技术公司(SpaceX)提出的一个巨型低轨卫星互联网星座项目,计划在2019年至2024年间在太空搭建由约1.2万颗卫星组成的“星链”网络,其中1584颗将部署在地球上空550千米处的近地轨道,并从2020年开始工作。该卫星仍在工作。
与全量物体交会距离演化趋势
与全量物体交会风险概率演化趋势